owner,sensor,date,latitude,longitude,vertical_datum,sea_water_practical_salinity,qcFlag 
TABS,ioos:station:wmo:42050:1,2015-10-01T00:00:00Z,28.8425,-94.2433,2.0,33.4814,11111222 
TABS,ioos:station:wmo:42050:1,2015-10-01T00:30:00Z,28.8425,-94.2433,2.0,33.4651,11111222 
TABS,ioos:station:wmo:42050:1,2015-10-01T01:00:00Z,28.8425,-94.2433,2.0,33.48,11111222 
TABS,ioos:station:wmo:42050:1,2015-10-01T01:30:00Z,28.8425,-94.2433,2.0,33.4809,11111222 
TABS,ioos:station:wmo:42050:1,2015-10-01T02:00:00Z,28.8425,-94.2433,2.0,33.4767,11111222 
TABS,ioos:station:wmo:42050:1,2015-10-01T02:30:00Z,28.8425,-94.2433,2.0,33.475,11111222 
TABS,ioos:station:wmo:42050:1,2015-10-01T03:00:00Z,28.8425,-94.2433,2.0,33.4737,11111222 
TABS,ioos:station:wmo:42050:1,2015-10-01T03:30:00Z,28.8425,-94.2433,2.0,33.4748,11111222 
TABS,ioos:station:wmo:42050:1,2015-10-01T04:00:00Z,28.8425,-94.2433,2.0,33.4739,11111222 
TABS,ioos:station:wmo:42050:1,2015-10-01T04:30:00Z,28.8425,-94.2433,2.0,33.4715,11111222 
TABS,ioos:station:wmo:42050:1,2015-10-01T05:00:00Z,28.8425,-94.2433,2.0,33.4699,11111222 
TABS,ioos:station:wmo:42050:1,2015-10-01T05:30:00Z,28.8425,-94.2433,2.0,33.4692,11111222 
TABS,ioos:station:wmo:42050:1,2015-10-01T06:00:00Z,28.8425,-94.2433,2.0,33.4753,11111222 
TABS,ioos:station:wmo:42050:1,2015-10-01T06:30:00Z,28.8425,-94.2433,2.0,33.4756,11111222 
TABS,ioos:station:wmo:42050:1,2015-10-01T07:00:00Z,28.8425,-94.2433,2.0,33.4798,11111222 
TABS,ioos:station:wmo:42050:1,2015-10-01T07:30:00Z,28.8425,-94.2433,2.0,33.4812,11111222 
TABS,ioos:station:wmo:42050:1,2015-10-01T08:00:00Z,28.8425,-94.2433,2.0,33.4833,11111222 
TABS,ioos:station:wmo:42050:1,2015-10-01T08:30:00Z,28.8425,-94.2433,2.0,33.4888,11111222 
TABS,ioos:station:wmo:42050:1,2015-10-01T09:00:00Z,28.8425,-94.2433,2.0,33.4923,11111222 
TABS,ioos:station:wmo:42050:1,2015-10-01T09:30:00Z,28.8425,-94.2433,2.0,33.4958,11111222 
TABS,ioos:station:wmo:42050:1,2015-10-01T10:00:00Z,28.8425,-94.2433,2.0,33.4886,11111222 
TABS,ioos:station:wmo:42050:1,2015-10-01T10:30:00Z,28.8425,-94.2433,2.0,33.4876,11111222 
TABS,ioos:station:wmo:42050:1,2015-10-01T11:00:00Z,28.8425,-94.2433,2.0,33.4804,11111222 
TABS,ioos:station:wmo:42050:1,2015-10-01T11:30:00Z,28.8425,-94.2433,2.0,33.4714,11111222 
TABS,ioos:station:wmo:42050:1,2015-10-01T12:00:00Z,28.8425,-94.2433,2.0,33.468,11111222 
TABS,ioos:station:wmo:42050:1,2015-10-01T12:30:00Z,28.8425,-94.2433,2.0,33.4609,11111222 
TABS,ioos:station:wmo:42050:1,2015-10-01T13:00:00Z,28.8425,-94.2433,2.0,33.453,11111222 
TABS,ioos:station:wmo:42050:1,2015-10-01T13:30:00Z,28.8425,-94.2433,2.0,33.4427,11111222 
TABS,ioos:station:wmo:42050:1,2015-10-01T14:00:00Z,28.8425,-94.2433,2.0,33.4276,11111222 
TABS,ioos:station:wmo:42050:1,2015-10-01T14:30:00Z,28.8425,-94.2433,2.0,33.4155,11111222 
TABS,ioos:station:wmo:42050:1,2015-10-01T15:00:00Z,28.8425,-94.2433,2.0,33.4081,11111222 
TABS,ioos:station:wmo:42050:1,2015-10-01T15:30:00Z,28.8425,-94.2433,2.0,33.4041,11111222 
TABS,ioos:station:wmo:42050:1,2015-10-01T16:00:00Z,28.8425,-94.2433,2.0,33.3857,11111222 
TABS,ioos:station:wmo:42050:1,2015-10-01T16:30:00Z,28.8425,-94.2433,2.0,33.3824,11111222 
TABS,ioos:station:wmo:42050:1,2015-10-01T17:00:00Z,28.8425,-94.2433,2.0,33.3736,11111222 
TABS,ioos:station:wmo:42050:1,2015-10-01T17:30:00Z,28.8425,-94.2433,2.0,33.3734,11111222 
TABS,ioos:station:wmo:42050:1,2015-10-01T18:00:00Z,28.8425,-94.2433,2.0,33.376,11111222 
TABS,ioos:station:wmo:42050:1,2015-10-01T18:30:00Z,28.8425,-94.2433,2.0,33.3827,11111222 
TABS,ioos:station:wmo:42050:1,2015-10-01T19:00:00Z,28.8425,-94.2433,2.0,33.3799,11111222 
TABS,ioos:station:wmo:42050:1,2015-10-01T19:30:00Z,28.8425,-94.2433,2.0,33.3854,11111222 
TABS,ioos:station:wmo:42050:1,2015-10-01T20:00:00Z,28.8425,-94.2433,2.0,33.3956,11111222 
TABS,ioos:station:wmo:42050:1,2015-10-01T20:30:00Z,28.8425,-94.2433,2.0,33.4107,11111222 
TABS,ioos:station:wmo:42050:1,2015-10-01T21:00:00Z,28.8425,-94.2433,2.0,33.4147,11111222 
TABS,ioos:station:wmo:42050:1,2015-10-01T21:30:00Z,28.8425,-94.2433,2.0,33.4146,11111222 
TABS,ioos:station:wmo:42050:1,2015-10-01T22:00:00Z,28.8425,-94.2433,2.0,33.4293,11111222 
TABS,ioos:station:wmo:42050:1,2015-10-01T22:30:00Z,28.8425,-94.2433,2.0,33.4336,11111222 
TABS,ioos:station:wmo:42050:1,2015-10-01T23:00:00Z,28.8425,-94.2433,2.0,33.4375,11111222 
TABS,ioos:station:wmo:42050:1,2015-10-01T23:30:00Z,28.8425,-94.2433,2.0,33.4417,11111222 
TABS,ioos:station:wmo:42050:1,2015-10-02T00:00:00Z,28.8425,-94.2433,2.0,33.4488,11111222 
TABS,ioos:station:wmo:42050:1,2015-10-02T00:30:00Z,28.8425,-94.2433,2.0,33.4498,11111222 
TABS,ioos:station:wmo:42050:1,2015-10-02T01:00:00Z,28.8425,-94.2433,2.0,33.4522,11111222 
TABS,ioos:station:wmo:42050:1,2015-10-02T01:30:00Z,28.8425,-94.2433,2.0,33.453,11111222 
TABS,ioos:station:wmo:42050:1,2015-10-02T02:00:00Z,28.8425,-94.2433,2.0,33.4569,11111222 
TABS,ioos:station:wmo:42050:1,2015-10-02T02:30:00Z,28.8425,-94.2433,2.0,33.4529,11111222 
TABS,ioos:station:wmo:42050:1,2015-10-02T03:00:00Z,28.8425,-94.2433,2.0,33.4549,11111222 
TABS,ioos:station:wmo:42050:1,2015-10-02T03:30:00Z,28.8425,-94.2433,2.0,33.4539,11111222 
TABS,ioos:station:wmo:42050:1,2015-10-02T04:00:00Z,28.8425,-94.2433,2.0,33.4506,11111222 
TABS,ioos:station:wmo:42050:1,2015-10-02T04:30:00Z,28.8425,-94.2433,2.0,33.4514,11111222 
TABS,ioos:station:wmo:42050:1,2015-10-02T05:00:00Z,28.8425,-94.2433,2.0,33.4486,11111222 
TABS,ioos:station:wmo:42050:1,2015-10-02T05:30:00Z,28.8425,-94.2433,2.0,33.4473,11111222 
TABS,ioos:station:wmo:42050:1,2015-10-02T06:00:00Z,28.8425,-94.2433,2.0,33.4463,11111222 
TABS,ioos:station:wmo:42050:1,2015-10-02T06:30:00Z,28.8425,-94.2433,2.0,33.4442,11111222 
TABS,ioos:station:wmo:42050:1,2015-10-02T07:00:00Z,28.8425,-94.2433,2.0,33.4439,11111222 
TABS,ioos:station:wmo:42050:1,2015-10-02T07:30:00Z,28.8425,-94.2433,2.0,33.4422,11111222 
TABS,ioos:station:wmo:42050:1,2015-10-02T08:00:00Z,28.8425,-94.2433,2.0,33.4404,11111222 
TABS,ioos:station:wmo:42050:1,2015-10-02T08:30:00Z,28.8425,-94.2433,2.0,33.4433,11111222 
TABS,ioos:station:wmo:42050:1,2015-10-02T09:00:00Z,28.8425,-94.2433,2.0,33.4399,11111222 
TABS,ioos:station:wmo:42050:1,2015-10-02T09:30:00Z,28.8425,-94.2433,2.0,33.4405,11111222 
TABS,ioos:station:wmo:42050:1,2015-10-02T10:00:00Z,28.8425,-94.2433,2.0,33.4392,11111222 
TABS,ioos:station:wmo:42050:1,2015-10-02T10:30:00Z,28.8425,-94.2433,2.0,33.4341,11111222 
TABS,ioos:station:wmo:42050:1,2015-10-02T11:00:00Z,28.8425,-94.2433,2.0,33.4257,11111222 
TABS,ioos:station:wmo:42050:1,2015-10-02T11:30:00Z,28.8425,-94.2433,2.0,33.4227,11111222 
TABS,ioos:station:wmo:42050:1,2015-10-02T12:00:00Z,28.8425,-94.2433,2.0,33.4181,11111222 
TABS,ioos:station:wmo:42050:1,2015-10-02T12:30:00Z,28.8425,-94.2433,2.0,33.4219,11111222 
TABS,ioos:station:wmo:42050:1,2015-10-02T13:00:00Z,28.8425,-94.2433,2.0,33.4358,11111222 
TABS,ioos:station:wmo:42050:1,2015-10-02T13:30:00Z,28.8425,-94.2433,2.0,33.4504,11111222 
TABS,ioos:station:wmo:42050:1,2015-10-02T14:00:00Z,28.8425,-94.2433,2.0,33.4529,11111222 
TABS,ioos:station:wmo:42050:1,2015-10-02T14:30:00Z,28.8425,-94.2433,2.0,33.4596,11111222 
TABS,ioos:station:wmo:42050:1,2015-10-02T15:00:00Z,28.8425,-94.2433,2.0,33.4647,11111222 
TABS,ioos:station:wmo:42050:1,2015-10-02T15:30:00Z,28.8425,-94.2433,2.0,33.4558,11111222 
TABS,ioos:station:wmo:42050:1,2015-10-02T16:00:00Z,28.8425,-94.2433,2.0,33.4511,11111222 
TABS,ioos:station:wmo:42050:1,2015-10-02T16:30:00Z,28.8425,-94.2433,2.0,33.4418,11111222 
TABS,ioos:station:wmo:42050:1,2015-10-02T17:00:00Z,28.8425,-94.2433,2.0,33.4306,11111222 
TABS,ioos:station:wmo:42050:1,2015-10-02T17:30:00Z,28.8425,-94.2433,2.0,33.4141,11111222 
TABS,ioos:station:wmo:42050:1,2015-10-02T18:00:00Z,28.8425,-94.2433,2.0,33.4089,11111222 
TABS,ioos:station:wmo:42050:1,2015-10-02T18:30:00Z,28.8425,-94.2433,2.0,33.4119,11111222 
TABS,ioos:station:wmo:42050:1,2015-10-02T19:00:00Z,28.8425,-94.2433,2.0,33.4148,11111222 
TABS,ioos:station:wmo:42050:1,2015-10-02T19:30:00Z,28.8425,-94.2433,2.0,33.4223,11111222 
TABS,ioos:station:wmo:42050:1,2015-10-02T20:00:00Z,28.8425,-94.2433,2.0,33.4286,11111222 
TABS,ioos:station:wmo:42050:1,2015-10-02T20:30:00Z,28.8425,-94.2433,2.0,33.4371,11111222 
TABS,ioos:station:wmo:42050:1,2015-10-02T21:00:00Z,28.8425,-94.2433,2.0,33.4449,11111222 
TABS,ioos:station:wmo:42050:1,2015-10-02T21:30:00Z,28.8425,-94.2433,2.0,33.4488,11111222 
TABS,ioos:station:wmo:42050:1,2015-10-02T22:00:00Z,28.8425,-94.2433,2.0,33.4509,11111222 
TABS,ioos:station:wmo:42050:1,2015-10-02T22:30:00Z,28.8425,-94.2433,2.0,33.452,11111222 
TABS,ioos:station:wmo:42050:1,2015-10-02T23:00:00Z,28.8425,-94.2433,2.0,33.456,11111222 
TABS,ioos:station:wmo:42050:1,2015-10-02T23:30:00Z,28.8425,-94.2433,2.0,33.4556,11111222 
TABS,ioos:station:wmo:42050:1,2015-10-03T00:00:00Z,28.8425,-94.2433,2.0,33.4621,11111222 
TABS,ioos:station:wmo:42050:1,2015-10-03T00:30:00Z,28.8425,-94.2433,2.0,33.4643,11111222 
TABS,ioos:station:wmo:42050:1,2015-10-03T01:00:00Z,28.8425,-94.2433,2.0,33.4672,11111222 
TABS,ioos:station:wmo:42050:1,2015-10-03T01:30:00Z,28.8425,-94.2433,2.0,33.4682,11111222 
TABS,ioos:station:wmo:42050:1,2015-10-03T02:00:00Z,28.8425,-94.2433,2.0,33.47,11111222 
TABS,ioos:station:wmo:42050:1,2015-10-03T02:30:00Z,28.8425,-94.2433,2.0,33.4677,11111222 
TABS,ioos:station:wmo:42050:1,2015-10-03T03:00:00Z,28.8425,-94.2433,2.0,33.4666,11111222 
TABS,ioos:station:wmo:42050:1,2015-10-03T03:30:00Z,28.8425,-94.2433,2.0,33.4677,11111222 
TABS,ioos:station:wmo:42050:1,2015-10-03T04:00:00Z,28.8425,-94.2433,2.0,33.4685,11111222 
TABS,ioos:station:wmo:42050:1,2015-10-03T04:30:00Z,28.8425,-94.2433,2.0,33.4719,11111222 
TABS,ioos:station:wmo:42050:1,2015-10-03T05:00:00Z,28.8425,-94.2433,2.0,33.467,11111222 
TABS,ioos:station:wmo:42050:1,2015-10-03T05:30:00Z,28.8425,-94.2433,2.0,33.4666,11111222 
TABS,ioos:station:wmo:42050:1,2015-10-03T06:00:00Z,28.8425,-94.2433,2.0,33.466,11111222 
TABS,ioos:station:wmo:42050:1,2015-10-03T06:30:00Z,28.8425,-94.2433,2.0,33.4656,11111222 
TABS,ioos:station:wmo:42050:1,2015-10-03T07:00:00Z,28.8425,-94.2433,2.0,33.4662,11111222 
TABS,ioos:station:wmo:42050:1,2015-10-03T07:30:00Z,28.8425,-94.2433,2.0,33.4677,11111222 
TABS,ioos:station:wmo:42050:1,2015-10-03T08:00:00Z,28.8425,-94.2433,2.0,33.4671,11111222 
TABS,ioos:station:wmo:42050:1,2015-10-03T08:30:00Z,28.8425,-94.2433,2.0,33.4659,11111222 
TABS,ioos:station:wmo:42050:1,2015-10-03T09:00:00Z,28.8425,-94.2433,2.0,33.4667,11111222 
TABS,ioos:station:wmo:42050:1,2015-10-03T09:30:00Z,28.8425,-94.2433,2.0,33.4666,11111222 
TABS,ioos:station:wmo:42050:1,2015-10-03T10:00:00Z,28.8425,-94.2433,2.0,33.468,11111222 
TABS,ioos:station:wmo:42050:1,2015-10-03T10:30:00Z,28.8425,-94.2433,2.0,33.4697,11111222 
TABS,ioos:station:wmo:42050:1,2015-10-03T11:00:00Z,28.8425,-94.2433,2.0,33.4676,11111222 
TABS,ioos:station:wmo:42050:1,2015-10-03T11:30:00Z,28.8425,-94.2433,2.0,33.4669,11111222 
TABS,ioos:station:wmo:42050:1,2015-10-03T12:00:00Z,28.8425,-94.2433,2.0,33.4661,11111222 
TABS,ioos:station:wmo:42050:1,2015-10-03T12:30:00Z,28.8425,-94.2433,2.0,33.4655,11111222 
TABS,ioos:station:wmo:42050:1,2015-10-03T13:00:00Z,28.8425,-94.2433,2.0,33.4651,11111222 
TABS,ioos:station:wmo:42050:1,2015-10-03T13:30:00Z,28.8425,-94.2433,2.0,33.4637,11111222 
TABS,ioos:station:wmo:42050:1,2015-10-03T14:00:00Z,28.8425,-94.2433,2.0,33.4624,11111222 
TABS,ioos:station:wmo:42050:1,2015-10-03T14:30:00Z,28.8425,-94.2433,2.0,33.4622,11111222 
TABS,ioos:station:wmo:42050:1,2015-10-03T15:00:00Z,28.8425,-94.2433,2.0,33.4637,11111222 
TABS,ioos:station:wmo:42050:1,2015-10-03T15:30:00Z,28.8425,-94.2433,2.0,33.463,11111222 
TABS,ioos:station:wmo:42050:1,2015-10-03T16:00:00Z,28.8425,-94.2433,2.0,33.457,11111222 
TABS,ioos:station:wmo:42050:1,2015-10-03T16:30:00Z,28.8425,-94.2433,2.0,33.4551,11111222 
TABS,ioos:station:wmo:42050:1,2015-10-03T17:00:00Z,28.8425,-94.2433,2.0,33.4581,11111222 
TABS,ioos:station:wmo:42050:1,2015-10-03T17:30:00Z,28.8425,-94.2433,2.0,33.446,11111222 
TABS,ioos:station:wmo:42050:1,2015-10-03T18:00:00Z,28.8425,-94.2433,2.0,33.4252,11111222 
TABS,ioos:station:wmo:42050:1,2015-10-03T18:30:00Z,28.8425,-94.2433,2.0,33.4189,11111222 
TABS,ioos:station:wmo:42050:1,2015-10-03T19:00:00Z,28.8425,-94.2433,2.0,33.4214,11111222 
TABS,ioos:station:wmo:42050:1,2015-10-03T19:30:00Z,28.8425,-94.2433,2.0,33.4359,11111222 
TABS,ioos:station:wmo:42050:1,2015-10-03T20:00:00Z,28.8425,-94.2433,2.0,33.4379,11111222 
TABS,ioos:station:wmo:42050:1,2015-10-03T20:30:00Z,28.8425,-94.2433,2.0,33.4343,11111222 
TABS,ioos:station:wmo:42050:1,2015-10-03T21:00:00Z,28.8425,-94.2433,2.0,33.4408,11111222 
TABS,ioos:station:wmo:42050:1,2015-10-03T21:30:00Z,28.8425,-94.2433,2.0,33.4477,11111222 
TABS,ioos:station:wmo:42050:1,2015-10-03T22:00:00Z,28.8425,-94.2433,2.0,33.4493,11111222 
TABS,ioos:station:wmo:42050:1,2015-10-03T22:30:00Z,28.8425,-94.2433,2.0,33.4564,11111222 
TABS,ioos:station:wmo:42050:1,2015-10-03T23:00:00Z,28.8425,-94.2433,2.0,33.4577,11111222 
TABS,ioos:station:wmo:42050:1,2015-10-03T23:30:00Z,28.8425,-94.2433,2.0,33.4581,11111222 
TABS,ioos:station:wmo:42050:1,2015-10-04T00:00:00Z,28.8425,-94.2433,2.0,33.4551,11111222 
TABS,ioos:station:wmo:42050:1,2015-10-04T00:30:00Z,28.8425,-94.2433,2.0,33.4566,11111222 
TABS,ioos:station:wmo:42050:1,2015-10-04T01:00:00Z,28.8425,-94.2433,2.0,33.4654,11111222 
TABS,ioos:station:wmo:42050:1,2015-10-04T01:30:00Z,28.8425,-94.2433,2.0,33.4717,11111222 
TABS,ioos:station:wmo:42050:1,2015-10-04T02:00:00Z,28.8425,-94.2433,2.0,33.4799,11111222 
TABS,ioos:station:wmo:42050:1,2015-10-04T02:30:00Z,28.8425,-94.2433,2.0,33.4833,11111222 
TABS,ioos:station:wmo:42050:1,2015-10-04T03:00:00Z,28.8425,-94.2433,2.0,33.4869,11111222 
TABS,ioos:station:wmo:42050:1,2015-10-04T03:30:00Z,28.8425,-94.2433,2.0,33.4831,11111222 
TABS,ioos:station:wmo:42050:1,2015-10-04T04:00:00Z,28.8425,-94.2433,2.0,33.4824,11111222 
TABS,ioos:station:wmo:42050:1,2015-10-04T04:30:00Z,28.8425,-94.2433,2.0,33.4822,11111222 
TABS,ioos:station:wmo:42050:1,2015-10-04T05:00:00Z,28.8425,-94.2433,2.0,33.4825,11111222 
TABS,ioos:station:wmo:42050:1,2015-10-04T05:30:00Z,28.8425,-94.2433,2.0,33.4841,11111222 
TABS,ioos:station:wmo:42050:1,2015-10-04T06:00:00Z,28.8425,-94.2433,2.0,33.4866,11111222 
TABS,ioos:station:wmo:42050:1,2015-10-04T06:30:00Z,28.8425,-94.2433,2.0,33.4804,11111222 
TABS,ioos:station:wmo:42050:1,2015-10-04T07:00:00Z,28.8425,-94.2433,2.0,33.4818,11111222 
TABS,ioos:station:wmo:42050:1,2015-10-04T07:30:00Z,28.8425,-94.2433,2.0,33.4817,11111222 
TABS,ioos:station:wmo:42050:1,2015-10-04T08:00:00Z,28.8425,-94.2433,2.0,33.4762,11111222 
TABS,ioos:station:wmo:42050:1,2015-10-04T08:30:00Z,28.8425,-94.2433,2.0,33.4758,11111222 
TABS,ioos:station:wmo:42050:1,2015-10-04T09:00:00Z,28.8425,-94.2433,2.0,33.4761,11111222 
TABS,ioos:station:wmo:42050:1,2015-10-04T09:30:00Z,28.8425,-94.2433,2.0,33.4763,11111222 
TABS,ioos:station:wmo:42050:1,2015-10-04T10:00:00Z,28.8425,-94.2433,2.0,33.4745,11111222 
TABS,ioos:station:wmo:42050:1,2015-10-04T10:30:00Z,28.8425,-94.2433,2.0,33.4754,11111222 
TABS,ioos:station:wmo:42050:1,2015-10-04T11:00:00Z,28.8425,-94.2433,2.0,33.4778,11111222 
TABS,ioos:station:wmo:42050:1,2015-10-04T11:30:00Z,28.8425,-94.2433,2.0,33.478,11111222 
TABS,ioos:station:wmo:42050:1,2015-10-04T12:00:00Z,28.8425,-94.2433,2.0,33.4767,11111222 
TABS,ioos:station:wmo:42050:1,2015-10-04T12:30:00Z,28.8425,-94.2433,2.0,33.478,11111222 
TABS,ioos:station:wmo:42050:1,2015-10-04T13:00:00Z,28.8425,-94.2433,2.0,33.4759,11111222 
TABS,ioos:station:wmo:42050:1,2015-10-04T13:30:00Z,28.8425,-94.2433,2.0,33.4715,11111222 
TABS,ioos:station:wmo:42050:1,2015-10-04T14:00:00Z,28.8425,-94.2433,2.0,33.4713,11111222 
TABS,ioos:station:wmo:42050:1,2015-10-04T14:30:00Z,28.8425,-94.2433,2.0,33.4671,11111222 
TABS,ioos:station:wmo:42050:1,2015-10-04T15:00:00Z,28.8425,-94.2433,2.0,33.4631,11111222 
TABS,ioos:station:wmo:42050:1,2015-10-04T15:30:00Z,28.8425,-94.2433,2.0,33.4576,11111222 
TABS,ioos:station:wmo:42050:1,2015-10-04T16:00:00Z,28.8425,-94.2433,2.0,33.4507,11111222 
TABS,ioos:station:wmo:42050:1,2015-10-04T16:30:00Z,28.8425,-94.2433,2.0,33.4481,11111222 
TABS,ioos:station:wmo:42050:1,2015-10-04T17:00:00Z,28.8425,-94.2433,2.0,33.4412,11111222 
TABS,ioos:station:wmo:42050:1,2015-10-04T17:30:00Z,28.8425,-94.2433,2.0,33.4394,11111222 
TABS,ioos:station:wmo:42050:1,2015-10-04T18:00:00Z,28.8425,-94.2433,2.0,33.4336,11111222 
TABS,ioos:station:wmo:42050:1,2015-10-04T18:30:00Z,28.8425,-94.2433,2.0,33.4298,11111222 
TABS,ioos:station:wmo:42050:1,2015-10-04T19:00:00Z,28.8425,-94.2433,2.0,33.4245,11111222 
TABS,ioos:station:wmo:42050:1,2015-10-04T19:30:00Z,28.8425,-94.2433,2.0,33.4093,11111222 
TABS,ioos:station:wmo:42050:1,2015-10-04T20:00:00Z,28.8425,-94.2433,2.0,33.4087,11111222 
TABS,ioos:station:wmo:42050:1,2015-10-04T20:30:00Z,28.8425,-94.2433,2.0,33.408,11111222 
TABS,ioos:station:wmo:42050:1,2015-10-04T21:00:00Z,28.8425,-94.2433,2.0,33.4062,11111222 
TABS,ioos:station:wmo:42050:1,2015-10-04T21:30:00Z,28.8425,-94.2433,2.0,33.4067,11111222 
TABS,ioos:station:wmo:42050:1,2015-10-04T22:00:00Z,28.8425,-94.2433,2.0,33.409,11111222 
TABS,ioos:station:wmo:42050:1,2015-10-04T22:30:00Z,28.8425,-94.2433,2.0,33.4147,11111222 
TABS,ioos:station:wmo:42050:1,2015-10-04T23:00:00Z,28.8425,-94.2433,2.0,33.4332,11111222 
TABS,ioos:station:wmo:42050:1,2015-10-04T23:30:00Z,28.8425,-94.2433,2.0,33.4399,11111222 
TABS,ioos:station:wmo:42050:1,2015-10-05T00:00:00Z,28.8425,-94.2433,2.0,33.4434,11111222 
TABS,ioos:station:wmo:42050:1,2015-10-05T00:30:00Z,28.8425,-94.2433,2.0,33.4485,11111222 
TABS,ioos:station:wmo:42050:1,2015-10-05T01:00:00Z,28.8425,-94.2433,2.0,33.4519,11111222 
TABS,ioos:station:wmo:42050:1,2015-10-05T01:30:00Z,28.8425,-94.2433,2.0,33.4577,11111222 
TABS,ioos:station:wmo:42050:1,2015-10-05T02:00:00Z,28.8425,-94.2433,2.0,33.4589,11111222 
TABS,ioos:station:wmo:42050:1,2015-10-05T02:30:00Z,28.8425,-94.2433,2.0,33.4635,11111222 
TABS,ioos:station:wmo:42050:1,2015-10-05T03:00:00Z,28.8425,-94.2433,2.0,33.4651,11111222 
TABS,ioos:station:wmo:42050:1,2015-10-05T03:30:00Z,28.8425,-94.2433,2.0,33.4748,11111222 
TABS,ioos:station:wmo:42050:1,2015-10-05T04:00:00Z,28.8425,-94.2433,2.0,33.4838,11111222 
TABS,ioos:station:wmo:42050:1,2015-10-05T04:30:00Z,28.8425,-94.2433,2.0,33.4849,11111222 
TABS,ioos:station:wmo:42050:1,2015-10-05T05:00:00Z,28.8425,-94.2433,2.0,33.4806,11111222 
TABS,ioos:station:wmo:42050:1,2015-10-05T05:30:00Z,28.8425,-94.2433,2.0,33.4893,11111222 
TABS,ioos:station:wmo:42050:1,2015-10-05T06:00:00Z,28.8425,-94.2433,2.0,33.4957,11111222 
TABS,ioos:station:wmo:42050:1,2015-10-05T06:30:00Z,28.8425,-94.2433,2.0,33.5006,11111222 
TABS,ioos:station:wmo:42050:1,2015-10-05T07:00:00Z,28.8425,-94.2433,2.0,33.5062,11111222 
TABS,ioos:station:wmo:42050:1,2015-10-05T07:30:00Z,28.8425,-94.2433,2.0,33.4953,11111222 
TABS,ioos:station:wmo:42050:1,2015-10-05T08:00:00Z,28.8425,-94.2433,2.0,33.5188,11111222 
TABS,ioos:station:wmo:42050:1,2015-10-05T08:30:00Z,28.8425,-94.2433,2.0,33.5004,11111222 
TABS,ioos:station:wmo:42050:1,2015-10-05T09:00:00Z,28.8425,-94.2433,2.0,33.503,11111222 
TABS,ioos:station:wmo:42050:1,2015-10-05T09:30:00Z,28.8425,-94.2433,2.0,33.5212,11111222 
TABS,ioos:station:wmo:42050:1,2015-10-05T10:00:00Z,28.8425,-94.2433,2.0,33.506,11111222 
TABS,ioos:station:wmo:42050:1,2015-10-05T10:30:00Z,28.8425,-94.2433,2.0,33.5187,11111222 
TABS,ioos:station:wmo:42050:1,2015-10-05T11:00:00Z,28.8425,-94.2433,2.0,33.5167,11111222 
TABS,ioos:station:wmo:42050:1,2015-10-05T11:30:00Z,28.8425,-94.2433,2.0,33.5213,11111222 
TABS,ioos:station:wmo:42050:1,2015-10-05T12:00:00Z,28.8425,-94.2433,2.0,33.5331,11111222 
TABS,ioos:station:wmo:42050:1,2015-10-05T12:30:00Z,28.8425,-94.2433,2.0,33.5236,11111222 
TABS,ioos:station:wmo:42050:1,2015-10-05T13:00:00Z,28.8425,-94.2433,2.0,33.5263,11111222 
TABS,ioos:station:wmo:42050:1,2015-10-05T13:30:00Z,28.8425,-94.2433,2.0,33.5178,11111222 
TABS,ioos:station:wmo:42050:1,2015-10-05T14:00:00Z,28.8425,-94.2433,2.0,33.517,11111222 
TABS,ioos:station:wmo:42050:1,2015-10-05T14:30:00Z,28.8425,-94.2433,2.0,33.521,11111222 
TABS,ioos:station:wmo:42050:1,2015-10-05T15:00:00Z,28.8425,-94.2433,2.0,33.4986,11111222 
TABS,ioos:station:wmo:42050:1,2015-10-05T15:30:00Z,28.8425,-94.2433,2.0,33.4823,11111222 
TABS,ioos:station:wmo:42050:1,2015-10-05T16:00:00Z,28.8425,-94.2433,2.0,33.462,11111222 
TABS,ioos:station:wmo:42050:1,2015-10-05T16:30:00Z,28.8425,-94.2433,2.0,33.4484,11111222 
TABS,ioos:station:wmo:42050:1,2015-10-05T17:00:00Z,28.8425,-94.2433,2.0,33.4348,11111222 
TABS,ioos:station:wmo:42050:1,2015-10-05T17:30:00Z,28.8425,-94.2433,2.0,33.4166,11111222 
TABS,ioos:station:wmo:42050:1,2015-10-05T18:00:00Z,28.8425,-94.2433,2.0,33.4121,11111222 
TABS,ioos:station:wmo:42050:1,2015-10-05T18:30:00Z,28.8425,-94.2433,2.0,33.4087,11111222 
TABS,ioos:station:wmo:42050:1,2015-10-05T19:00:00Z,28.8425,-94.2433,2.0,33.401,11111222 
TABS,ioos:station:wmo:42050:1,2015-10-05T19:30:00Z,28.8425,-94.2433,2.0,33.3973,11111222 
TABS,ioos:station:wmo:42050:1,2015-10-05T20:00:00Z,28.8425,-94.2433,2.0,33.391,11111222 
TABS,ioos:station:wmo:42050:1,2015-10-05T20:30:00Z,28.8425,-94.2433,2.0,33.3876,11111222 
TABS,ioos:station:wmo:42050:1,2015-10-05T21:00:00Z,28.8425,-94.2433,2.0,33.3833,11111222 
TABS,ioos:station:wmo:42050:1,2015-10-05T21:30:00Z,28.8425,-94.2433,2.0,33.3791,11111222 
TABS,ioos:station:wmo:42050:1,2015-10-05T22:00:00Z,28.8425,-94.2433,2.0,33.3706,11111222 
TABS,ioos:station:wmo:42050:1,2015-10-05T22:30:00Z,28.8425,-94.2433,2.0,33.3718,11111222 
TABS,ioos:station:wmo:42050:1,2015-10-05T23:00:00Z,28.8425,-94.2433,2.0,33.376,11111222 
TABS,ioos:station:wmo:42050:1,2015-10-05T23:30:00Z,28.8425,-94.2433,2.0,33.3754,11111222 
TABS,ioos:station:wmo:42050:1,2015-10-06T00:00:00Z,28.8425,-94.2433,2.0,33.3799,11111222 
TABS,ioos:station:wmo:42050:1,2015-10-06T00:30:00Z,28.8425,-94.2433,2.0,33.3911,11111222 
TABS,ioos:station:wmo:42050:1,2015-10-06T01:00:00Z,28.8425,-94.2433,2.0,33.3895,11111222 
TABS,ioos:station:wmo:42050:1,2015-10-06T01:30:00Z,28.8425,-94.2433,2.0,33.4055,11111222 
TABS,ioos:station:wmo:42050:1,2015-10-06T02:00:00Z,28.8425,-94.2433,2.0,33.4148,11111222 
TABS,ioos:station:wmo:42050:1,2015-10-06T02:30:00Z,28.8425,-94.2433,2.0,33.4376,11111222 
TABS,ioos:station:wmo:42050:1,2015-10-06T03:00:00Z,28.8425,-94.2433,2.0,33.449,11111222 
TABS,ioos:station:wmo:42050:1,2015-10-06T03:30:00Z,28.8425,-94.2433,2.0,33.4631,11111222 
TABS,ioos:station:wmo:42050:1,2015-10-06T04:00:00Z,28.8425,-94.2433,2.0,33.4952,11111222 
TABS,ioos:station:wmo:42050:1,2015-10-06T04:30:00Z,28.8425,-94.2433,2.0,33.5,11111222 
TABS,ioos:station:wmo:42050:1,2015-10-06T05:00:00Z,28.8425,-94.2433,2.0,33.513,11111222 
TABS,ioos:station:wmo:42050:1,2015-10-06T05:30:00Z,28.8425,-94.2433,2.0,33.5238,11111222 
TABS,ioos:station:wmo:42050:1,2015-10-06T06:00:00Z,28.8425,-94.2433,2.0,33.5336,11111222 
TABS,ioos:station:wmo:42050:1,2015-10-06T06:30:00Z,28.8425,-94.2433,2.0,33.5445,11111222 
TABS,ioos:station:wmo:42050:1,2015-10-06T07:00:00Z,28.8425,-94.2433,2.0,33.5426,11111222 
TABS,ioos:station:wmo:42050:1,2015-10-06T07:30:00Z,28.8425,-94.2433,2.0,33.5572,11111222 
TABS,ioos:station:wmo:42050:1,2015-10-06T08:00:00Z,28.8425,-94.2433,2.0,33.5639,11111222 
TABS,ioos:station:wmo:42050:1,2015-10-06T08:30:00Z,28.8425,-94.2433,2.0,33.5757,11111222 
TABS,ioos:station:wmo:42050:1,2015-10-06T09:00:00Z,28.8425,-94.2433,2.0,33.5887,11111222 
TABS,ioos:station:wmo:42050:1,2015-10-06T09:30:00Z,28.8425,-94.2433,2.0,33.6053,11111222 
TABS,ioos:station:wmo:42050:1,2015-10-06T10:00:00Z,28.8425,-94.2433,2.0,33.6033,11111222 
TABS,ioos:station:wmo:42050:1,2015-10-06T10:30:00Z,28.8425,-94.2433,2.0,33.6085,11111222 
TABS,ioos:station:wmo:42050:1,2015-10-06T11:00:00Z,28.8425,-94.2433,2.0,33.6197,11111222 
TABS,ioos:station:wmo:42050:1,2015-10-06T11:30:00Z,28.8425,-94.2433,2.0,33.6293,11111222 
TABS,ioos:station:wmo:42050:1,2015-10-06T12:00:00Z,28.8425,-94.2433,2.0,33.6307,11111222 
TABS,ioos:station:wmo:42050:1,2015-10-06T12:30:00Z,28.8425,-94.2433,2.0,33.6365,11111222 